<?xml version="1.0" encoding="UTF-8"?>
<gpx
version="1.1"
creator="Kashmir3D 9.340 - http://www.kashmir3d.com"
xmlns:xsi="http://www.w3.org/2001/XMLSchema-instance"
xmlns="http://www.topografix.com/GPX/1/1"
xmlns:kashmir3d="http://www.kashmir3d.com/namespace/kashmir3d"
xsi:schemaLocation="http://www.topografix.com/GPX/1/1 http://www.topografix.com/GPX/1/1/gpx.xsd
	http://www.kashmir3d.com/namespace/kashmir3d http://www.kashmir3d.com/namespace/kashmir3d.xsd">
<trk>
 <name>HINOURAYAMA.KML(日浦山)</name>
 <number>1</number>
 <extensions>
 <kashmir3d:line_color>0000ff</kashmir3d:line_color>
 <kashmir3d:line_size>3</kashmir3d:line_size>
 <kashmir3d:line_style>1</kashmir3d:line_style>
 <kashmir3d:icon>901001</kashmir3d:icon>
 </extensions>
<trkseg>
<trkpt lat="34.372265" lon="132.530491">
 <ele>4.5</ele>
 <time>2020-03-24T14:40:48Z</time>
</trkpt>
<trkpt lat="34.372368" lon="132.530609">
 <ele>3.8</ele>
 <time>2020-03-24T14:40:48Z</time>
</trkpt>
<trkpt lat="34.372368" lon="132.530738">
 <ele>3.2</ele>
 <time>2020-03-24T14:40:48Z</time>
</trkpt>
<trkpt lat="34.372333" lon="132.530877">
 <ele>2.8</ele>
 <time>2020-03-24T14:40:48Z</time>
</trkpt>
<trkpt lat="34.372299" lon="132.531017">
 <ele>2.6</ele>
 <time>2020-03-24T14:40:48Z</time>
</trkpt>
<trkpt lat="34.372299" lon="132.531081">
 <ele>2.3</ele>
 <time>2020-03-24T14:40:48Z</time>
</trkpt>
<trkpt lat="34.372514" lon="132.531221">
 <ele>2</ele>
 <time>2020-03-24T14:40:48Z</time>
</trkpt>
<trkpt lat="34.372823" lon="132.531349">
 <ele>2.2</ele>
 <time>2020-03-24T14:40:49Z</time>
</trkpt>
<trkpt lat="34.373277" lon="132.531564">
 <ele>2.4</ele>
 <time>2020-03-24T14:40:49Z</time>
</trkpt>
<trkpt lat="34.373423" lon="132.531618">
 <ele>2.4</ele>
 <time>2020-03-24T14:40:49Z</time>
</trkpt>
<trkpt lat="34.374410" lon="132.531618">
 <ele>3.6</ele>
 <time>2020-03-24T14:40:49Z</time>
</trkpt>
<trkpt lat="34.374428" lon="132.532208">
 <ele>3.5</ele>
 <time>2020-03-24T14:40:49Z</time>
</trkpt>
<trkpt lat="34.374299" lon="132.532594">
 <ele>3.7</ele>
 <time>2020-03-24T14:40:49Z</time>
</trkpt>
<trkpt lat="34.374230" lon="132.532798">
 <ele>3.8</ele>
 <time>2020-03-24T14:40:49Z</time>
</trkpt>
<trkpt lat="34.374367" lon="132.532884">
 <ele>4.9</ele>
 <time>2020-03-24T14:40:49Z</time>
</trkpt>
<trkpt lat="34.374445" lon="132.533077">
 <ele>12.5</ele>
 <time>2020-03-24T14:40:49Z</time>
</trkpt>
<trkpt lat="34.374479" lon="132.533173">
 <ele>16.9</ele>
 <time>2020-03-24T14:40:49Z</time>
</trkpt>
<trkpt lat="34.374573" lon="132.533173">
 <ele>21.1</ele>
 <time>2020-03-24T14:40:50Z</time>
</trkpt>
<trkpt lat="34.374582" lon="132.533259">
 <ele>24</ele>
 <time>2020-03-24T14:40:50Z</time>
</trkpt>
<trkpt lat="34.374599" lon="132.533323">
 <ele>26.8</ele>
 <time>2020-03-24T14:40:50Z</time>
</trkpt>
<trkpt lat="34.374694" lon="132.533388">
 <ele>31.5</ele>
 <time>2020-03-24T14:40:50Z</time>
</trkpt>
<trkpt lat="34.374754" lon="132.533323">
 <ele>33.4</ele>
 <time>2020-03-24T14:40:50Z</time>
</trkpt>
<trkpt lat="34.374882" lon="132.533323">
 <ele>37</ele>
 <time>2020-03-24T14:40:50Z</time>
</trkpt>
<trkpt lat="34.374951" lon="132.533388">
 <ele>41.4</ele>
 <time>2020-03-24T14:40:50Z</time>
</trkpt>
<trkpt lat="34.375046" lon="132.533356">
 <ele>47.4</ele>
 <time>2020-03-24T14:40:50Z</time>
</trkpt>
<trkpt lat="34.375217" lon="132.533356">
 <ele>55.8</ele>
 <time>2020-03-24T14:40:50Z</time>
</trkpt>
<trkpt lat="34.375312" lon="132.533463">
 <ele>58.3</ele>
 <time>2020-03-24T14:40:50Z</time>
</trkpt>
<trkpt lat="34.375406" lon="132.533592">
 <ele>63.4</ele>
 <time>2020-03-24T14:40:51Z</time>
</trkpt>
<trkpt lat="34.375483" lon="132.533677">
 <ele>68.1</ele>
 <time>2020-03-24T14:40:51Z</time>
</trkpt>
<trkpt lat="34.375595" lon="132.533720">
 <ele>72.8</ele>
 <time>2020-03-24T14:40:51Z</time>
</trkpt>
<trkpt lat="34.375698" lon="132.533710">
 <ele>76.1</ele>
 <time>2020-03-24T14:40:51Z</time>
</trkpt>
<trkpt lat="34.375827" lon="132.533613">
 <ele>78.4</ele>
 <time>2020-03-24T14:40:51Z</time>
</trkpt>
<trkpt lat="34.375972" lon="132.533602">
 <ele>79.5</ele>
 <time>2020-03-24T14:40:51Z</time>
</trkpt>
<trkpt lat="34.376101" lon="132.533581">
 <ele>82.4</ele>
 <time>2020-03-24T14:40:51Z</time>
</trkpt>
<trkpt lat="34.376101" lon="132.533656">
 <ele>86.5</ele>
 <time>2020-03-24T14:40:51Z</time>
</trkpt>
<trkpt lat="34.375972" lon="132.533688">
 <ele>85.5</ele>
 <time>2020-03-24T14:40:51Z</time>
</trkpt>
<trkpt lat="34.375912" lon="132.533763">
 <ele>88.4</ele>
 <time>2020-03-24T14:40:52Z</time>
</trkpt>
<trkpt lat="34.375938" lon="132.533914">
 <ele>96.7</ele>
 <time>2020-03-24T14:40:52Z</time>
</trkpt>
<trkpt lat="34.375887" lon="132.534021">
 <ele>97.6</ele>
 <time>2020-03-24T14:40:52Z</time>
</trkpt>
<trkpt lat="34.376015" lon="132.534139">
 <ele>99.8</ele>
 <time>2020-03-24T14:40:52Z</time>
</trkpt>
<trkpt lat="34.376033" lon="132.534278">
 <ele>100.8</ele>
 <time>2020-03-24T14:40:52Z</time>
</trkpt>
<trkpt lat="34.376110" lon="132.534343">
 <ele>103.6</ele>
 <time>2020-03-24T14:40:52Z</time>
</trkpt>
<trkpt lat="34.376161" lon="132.534418">
 <ele>103.6</ele>
 <time>2020-03-24T14:40:52Z</time>
</trkpt>
<trkpt lat="34.376170" lon="132.534514">
 <ele>106.1</ele>
 <time>2020-03-24T14:40:52Z</time>
</trkpt>
<trkpt lat="34.376144" lon="132.534697">
 <ele>106.3</ele>
 <time>2020-03-24T14:40:52Z</time>
</trkpt>
<trkpt lat="34.376359" lon="132.534750">
 <ele>108.7</ele>
 <time>2020-03-24T14:40:52Z</time>
</trkpt>
<trkpt lat="34.376548" lon="132.534847">
 <ele>108.3</ele>
 <time>2020-03-24T14:40:53Z</time>
</trkpt>
<trkpt lat="34.376668" lon="132.534890">
 <ele>108.3</ele>
 <time>2020-03-24T14:40:53Z</time>
</trkpt>
<trkpt lat="34.376779" lon="132.534922">
 <ele>110.8</ele>
 <time>2020-03-24T14:40:53Z</time>
</trkpt>
<trkpt lat="34.376960" lon="132.535126">
 <ele>116.6</ele>
 <time>2020-03-24T14:40:53Z</time>
</trkpt>
<trkpt lat="34.377414" lon="132.535298">
 <ele>116.3</ele>
 <time>2020-03-24T14:40:53Z</time>
</trkpt>
<trkpt lat="34.377543" lon="132.535298">
 <ele>117.2</ele>
 <time>2020-03-24T14:40:53Z</time>
</trkpt>
<trkpt lat="34.377732" lon="132.535373">
 <ele>121.1</ele>
 <time>2020-03-24T14:40:53Z</time>
</trkpt>
<trkpt lat="34.377990" lon="132.535437">
 <ele>130.2</ele>
 <time>2020-03-24T14:40:53Z</time>
</trkpt>
<trkpt lat="34.378204" lon="132.535426">
 <ele>132.2</ele>
 <time>2020-03-24T14:40:53Z</time>
</trkpt>
<trkpt lat="34.378393" lon="132.535491">
 <ele>137.3</ele>
 <time>2020-03-24T14:40:53Z</time>
</trkpt>
<trkpt lat="34.378650" lon="132.535405">
 <ele>143.4</ele>
 <time>2020-03-24T14:40:54Z</time>
</trkpt>
<trkpt lat="34.378856" lon="132.535416">
 <ele>148.8</ele>
 <time>2020-03-24T14:40:54Z</time>
</trkpt>
<trkpt lat="34.379019" lon="132.535426">
 <ele>151.6</ele>
 <time>2020-03-24T14:40:54Z</time>
</trkpt>
<trkpt lat="34.379268" lon="132.535555">
 <ele>154.3</ele>
 <time>2020-03-24T14:40:54Z</time>
</trkpt>
<trkpt lat="34.379603" lon="132.535791">
 <ele>149.1</ele>
 <time>2020-03-24T14:40:54Z</time>
</trkpt>
<trkpt lat="34.379818" lon="132.535909">
 <ele>147.9</ele>
 <time>2020-03-24T14:40:54Z</time>
</trkpt>
<trkpt lat="34.380092" lon="132.536102">
 <ele>152.2</ele>
 <time>2020-03-24T14:40:54Z</time>
</trkpt>
<trkpt lat="34.380281" lon="132.536209">
 <ele>162.4</ele>
 <time>2020-03-24T14:40:54Z</time>
</trkpt>
<trkpt lat="34.380324" lon="132.536499">
 <ele>166.4</ele>
 <time>2020-03-24T14:40:54Z</time>
</trkpt>
<trkpt lat="34.380376" lon="132.536714">
 <ele>173.1</ele>
 <time>2020-03-24T14:40:55Z</time>
</trkpt>
<trkpt lat="34.380461" lon="132.536896">
 <ele>177</ele>
 <time>2020-03-24T14:40:55Z</time>
</trkpt>
<trkpt lat="34.380513" lon="132.537079">
 <ele>180.9</ele>
 <time>2020-03-24T14:40:55Z</time>
</trkpt>
<trkpt lat="34.380659" lon="132.537304">
 <ele>184.9</ele>
 <time>2020-03-24T14:40:55Z</time>
</trkpt>
<trkpt lat="34.380779" lon="132.537454">
 <ele>191.1</ele>
 <time>2020-03-24T14:40:55Z</time>
</trkpt>
<trkpt lat="34.380994" lon="132.537604">
 <ele>201.6</ele>
 <time>2020-03-24T14:40:55Z</time>
</trkpt>
<trkpt lat="34.381165" lon="132.537722">
 <ele>208.9</ele>
 <time>2020-03-24T14:40:55Z</time>
</trkpt>
<trkpt lat="34.381294" lon="132.538023">
 <ele>221.5</ele>
 <time>2020-03-24T14:40:55Z</time>
</trkpt>
<trkpt lat="34.381406" lon="132.538312">
 <ele>231.4</ele>
 <time>2020-03-24T14:40:55Z</time>
</trkpt>
<trkpt lat="34.381466" lon="132.538570">
 <ele>235.9</ele>
 <time>2020-03-24T14:40:55Z</time>
</trkpt>
<trkpt lat="34.381491" lon="132.538741">
 <ele>242.4</ele>
 <time>2020-03-24T14:40:56Z</time>
</trkpt>
<trkpt lat="34.381474" lon="132.538956">
 <ele>252.4</ele>
 <time>2020-03-24T14:40:56Z</time>
</trkpt>
<trkpt lat="34.381466" lon="132.539063">
 <ele>255.9</ele>
 <time>2020-03-24T14:40:56Z</time>
</trkpt>
<trkpt lat="34.381543" lon="132.539256">
 <ele>262.6</ele>
 <time>2020-03-24T14:40:56Z</time>
</trkpt>
<trkpt lat="34.381594" lon="132.539417">
 <ele>271.3</ele>
 <time>2020-03-24T14:40:56Z</time>
</trkpt>
<trkpt lat="34.381629" lon="132.539525">
 <ele>275.7</ele>
 <time>2020-03-24T14:40:56Z</time>
</trkpt>
<trkpt lat="34.381620" lon="132.539632">
 <ele>281.6</ele>
 <time>2020-03-24T14:40:56Z</time>
</trkpt>
<trkpt lat="34.381715" lon="132.539729">
 <ele>284.4</ele>
 <time>2020-03-24T14:40:56Z</time>
</trkpt>
<trkpt lat="34.381895" lon="132.539825">
 <ele>291.1</ele>
 <time>2020-03-24T14:40:56Z</time>
</trkpt>
<trkpt lat="34.382024" lon="132.539911">
 <ele>297.9</ele>
 <time>2020-03-24T14:40:57Z</time>
</trkpt>
<trkpt lat="34.382075" lon="132.539965">
 <ele>301</ele>
 <time>2020-03-24T14:40:57Z</time>
</trkpt>
<trkpt lat="34.382135" lon="132.540136">
 <ele>302.9</ele>
 <time>2020-03-24T14:40:57Z</time>
</trkpt>
<trkpt lat="34.382221" lon="132.540233">
 <ele>305.5</ele>
 <time>2020-03-24T14:40:57Z</time>
</trkpt>
<trkpt lat="34.382264" lon="132.540404">
 <ele>305.8</ele>
 <time>2020-03-24T14:40:57Z</time>
</trkpt>
<trkpt lat="34.382350" lon="132.540619">
 <ele>306.4</ele>
 <time>2020-03-24T14:40:57Z</time>
</trkpt>
<trkpt lat="34.382504" lon="132.540877">
 <ele>309.4</ele>
 <time>2020-03-24T14:40:57Z</time>
</trkpt>
<trkpt lat="34.382650" lon="132.540973">
 <ele>312</ele>
 <time>2020-03-24T14:40:57Z</time>
</trkpt>
<trkpt lat="34.382727" lon="132.541059">
 <ele>314.7</ele>
 <time>2020-03-24T14:40:57Z</time>
</trkpt>
<trkpt lat="34.382796" lon="132.541252">
 <ele>319.7</ele>
 <time>2020-03-24T14:40:58Z</time>
</trkpt>
<trkpt lat="34.382813" lon="132.541434">
 <ele>324.1</ele>
 <time>2020-03-24T14:40:58Z</time>
</trkpt>
<trkpt lat="34.382779" lon="132.541606">
 <ele>329</ele>
 <time>2020-03-24T14:40:58Z</time>
</trkpt>
<trkpt lat="34.382736" lon="132.541735">
 <ele>334.4</ele>
 <time>2020-03-24T14:40:58Z</time>
</trkpt>
<trkpt lat="34.382745" lon="132.541874">
 <ele>336.9</ele>
 <time>2020-03-24T14:40:58Z</time>
</trkpt>
<trkpt lat="34.382786" lon="132.542064">
 <ele>344.3</ele>
 <time>2020-03-24T14:40:58Z</time>
</trkpt>
<trkpt lat="34.382745" lon="132.541874">
 <ele>336.9</ele>
 <time>2020-03-24T14:40:58Z</time>
</trkpt>
<trkpt lat="34.382736" lon="132.541735">
 <ele>334.4</ele>
 <time>2020-03-24T14:40:58Z</time>
</trkpt>
<trkpt lat="34.382779" lon="132.541606">
 <ele>329</ele>
 <time>2020-03-24T14:40:58Z</time>
</trkpt>
<trkpt lat="34.382813" lon="132.541434">
 <ele>324.1</ele>
 <time>2020-03-24T14:40:58Z</time>
</trkpt>
<trkpt lat="34.382796" lon="132.541252">
 <ele>319.7</ele>
 <time>2020-03-24T14:40:59Z</time>
</trkpt>
<trkpt lat="34.382727" lon="132.541059">
 <ele>314.7</ele>
 <time>2020-03-24T14:40:59Z</time>
</trkpt>
<trkpt lat="34.382650" lon="132.540973">
 <ele>312</ele>
 <time>2020-03-24T14:40:59Z</time>
</trkpt>
<trkpt lat="34.382504" lon="132.540877">
 <ele>309.4</ele>
 <time>2020-03-24T14:40:59Z</time>
</trkpt>
<trkpt lat="34.382350" lon="132.540619">
 <ele>306.4</ele>
 <time>2020-03-24T14:40:59Z</time>
</trkpt>
<trkpt lat="34.382264" lon="132.540404">
 <ele>305.8</ele>
 <time>2020-03-24T14:40:59Z</time>
</trkpt>
<trkpt lat="34.382221" lon="132.540233">
 <ele>305.5</ele>
 <time>2020-03-24T14:40:59Z</time>
</trkpt>
<trkpt lat="34.382135" lon="132.540136">
 <ele>302.9</ele>
 <time>2020-03-24T14:40:59Z</time>
</trkpt>
<trkpt lat="34.382075" lon="132.539965">
 <ele>301</ele>
 <time>2020-03-24T14:40:59Z</time>
</trkpt>
<trkpt lat="34.382024" lon="132.539911">
 <ele>297.9</ele>
 <time>2020-03-24T14:41:00Z</time>
</trkpt>
<trkpt lat="34.381895" lon="132.539825">
 <ele>291.1</ele>
 <time>2020-03-24T14:41:00Z</time>
</trkpt>
<trkpt lat="34.381715" lon="132.539729">
 <ele>284.4</ele>
 <time>2020-03-24T14:41:00Z</time>
</trkpt>
<trkpt lat="34.381620" lon="132.539632">
 <ele>281.6</ele>
 <time>2020-03-24T14:41:00Z</time>
</trkpt>
<trkpt lat="34.381629" lon="132.539525">
 <ele>275.7</ele>
 <time>2020-03-24T14:41:00Z</time>
</trkpt>
<trkpt lat="34.381594" lon="132.539417">
 <ele>271.3</ele>
 <time>2020-03-24T14:41:00Z</time>
</trkpt>
<trkpt lat="34.381543" lon="132.539256">
 <ele>262.6</ele>
 <time>2020-03-24T14:41:00Z</time>
</trkpt>
<trkpt lat="34.381466" lon="132.539063">
 <ele>255.9</ele>
 <time>2020-03-24T14:41:00Z</time>
</trkpt>
<trkpt lat="34.381474" lon="132.538956">
 <ele>252.4</ele>
 <time>2020-03-24T14:41:00Z</time>
</trkpt>
<trkpt lat="34.381491" lon="132.538741">
 <ele>242.4</ele>
 <time>2020-03-24T14:41:00Z</time>
</trkpt>
<trkpt lat="34.381466" lon="132.538570">
 <ele>235.9</ele>
 <time>2020-03-24T14:41:01Z</time>
</trkpt>
<trkpt lat="34.381406" lon="132.538312">
 <ele>231.4</ele>
 <time>2020-03-24T14:41:01Z</time>
</trkpt>
<trkpt lat="34.381294" lon="132.538023">
 <ele>221.5</ele>
 <time>2020-03-24T14:41:01Z</time>
</trkpt>
<trkpt lat="34.381165" lon="132.537722">
 <ele>208.9</ele>
 <time>2020-03-24T14:41:01Z</time>
</trkpt>
<trkpt lat="34.380994" lon="132.537604">
 <ele>201.6</ele>
 <time>2020-03-24T14:41:01Z</time>
</trkpt>
<trkpt lat="34.380779" lon="132.537454">
 <ele>191.1</ele>
 <time>2020-03-24T14:41:01Z</time>
</trkpt>
<trkpt lat="34.380659" lon="132.537304">
 <ele>184.9</ele>
 <time>2020-03-24T14:41:01Z</time>
</trkpt>
<trkpt lat="34.380513" lon="132.537079">
 <ele>180.9</ele>
 <time>2020-03-24T14:41:01Z</time>
</trkpt>
<trkpt lat="34.380461" lon="132.536896">
 <ele>177</ele>
 <time>2020-03-24T14:41:01Z</time>
</trkpt>
<trkpt lat="34.380376" lon="132.536714">
 <ele>173.1</ele>
 <time>2020-03-24T14:41:01Z</time>
</trkpt>
<trkpt lat="34.380324" lon="132.536499">
 <ele>166.4</ele>
 <time>2020-03-24T14:41:02Z</time>
</trkpt>
<trkpt lat="34.380281" lon="132.536209">
 <ele>162.4</ele>
 <time>2020-03-24T14:41:02Z</time>
</trkpt>
<trkpt lat="34.380092" lon="132.536102">
 <ele>152.2</ele>
 <time>2020-03-24T14:41:02Z</time>
</trkpt>
<trkpt lat="34.379818" lon="132.535909">
 <ele>147.9</ele>
 <time>2020-03-24T14:41:02Z</time>
</trkpt>
<trkpt lat="34.379603" lon="132.535791">
 <ele>149.1</ele>
 <time>2020-03-24T14:41:02Z</time>
</trkpt>
<trkpt lat="34.379268" lon="132.535555">
 <ele>154.3</ele>
 <time>2020-03-24T14:41:02Z</time>
</trkpt>
<trkpt lat="34.379019" lon="132.535426">
 <ele>151.6</ele>
 <time>2020-03-24T14:41:02Z</time>
</trkpt>
<trkpt lat="34.378856" lon="132.535416">
 <ele>148.8</ele>
 <time>2020-03-24T14:41:02Z</time>
</trkpt>
<trkpt lat="34.378650" lon="132.535405">
 <ele>143.4</ele>
 <time>2020-03-24T14:41:02Z</time>
</trkpt>
<trkpt lat="34.378393" lon="132.535491">
 <ele>137.3</ele>
 <time>2020-03-24T14:41:03Z</time>
</trkpt>
<trkpt lat="34.378204" lon="132.535426">
 <ele>132.2</ele>
 <time>2020-03-24T14:41:03Z</time>
</trkpt>
<trkpt lat="34.377990" lon="132.535437">
 <ele>130.2</ele>
 <time>2020-03-24T14:41:03Z</time>
</trkpt>
<trkpt lat="34.377732" lon="132.535373">
 <ele>121.1</ele>
 <time>2020-03-24T14:41:03Z</time>
</trkpt>
<trkpt lat="34.377543" lon="132.535298">
 <ele>117.2</ele>
 <time>2020-03-24T14:41:03Z</time>
</trkpt>
<trkpt lat="34.377414" lon="132.535298">
 <ele>116.3</ele>
 <time>2020-03-24T14:41:03Z</time>
</trkpt>
<trkpt lat="34.376960" lon="132.535126">
 <ele>116.6</ele>
 <time>2020-03-24T14:41:03Z</time>
</trkpt>
<trkpt lat="34.376779" lon="132.534922">
 <ele>110.8</ele>
 <time>2020-03-24T14:41:03Z</time>
</trkpt>
<trkpt lat="34.376668" lon="132.534890">
 <ele>108.3</ele>
 <time>2020-03-24T14:41:03Z</time>
</trkpt>
<trkpt lat="34.376548" lon="132.534847">
 <ele>108.3</ele>
 <time>2020-03-24T14:41:04Z</time>
</trkpt>
<trkpt lat="34.376359" lon="132.534750">
 <ele>108.7</ele>
 <time>2020-03-24T14:41:04Z</time>
</trkpt>
<trkpt lat="34.376144" lon="132.534697">
 <ele>106.3</ele>
 <time>2020-03-24T14:41:04Z</time>
</trkpt>
<trkpt lat="34.376170" lon="132.534514">
 <ele>106.1</ele>
 <time>2020-03-24T14:41:04Z</time>
</trkpt>
<trkpt lat="34.376161" lon="132.534418">
 <ele>103.6</ele>
 <time>2020-03-24T14:41:04Z</time>
</trkpt>
<trkpt lat="34.376110" lon="132.534343">
 <ele>103.6</ele>
 <time>2020-03-24T14:41:04Z</time>
</trkpt>
<trkpt lat="34.376033" lon="132.534278">
 <ele>100.8</ele>
 <time>2020-03-24T14:41:04Z</time>
</trkpt>
<trkpt lat="34.376015" lon="132.534139">
 <ele>99.8</ele>
 <time>2020-03-24T14:41:04Z</time>
</trkpt>
<trkpt lat="34.375887" lon="132.534021">
 <ele>97.6</ele>
 <time>2020-03-24T14:41:04Z</time>
</trkpt>
<trkpt lat="34.375938" lon="132.533914">
 <ele>96.7</ele>
 <time>2020-03-24T14:41:04Z</time>
</trkpt>
<trkpt lat="34.375912" lon="132.533763">
 <ele>88.4</ele>
 <time>2020-03-24T14:41:05Z</time>
</trkpt>
<trkpt lat="34.375972" lon="132.533688">
 <ele>85.5</ele>
 <time>2020-03-24T14:41:05Z</time>
</trkpt>
<trkpt lat="34.376101" lon="132.533656">
 <ele>86.5</ele>
 <time>2020-03-24T14:41:05Z</time>
</trkpt>
<trkpt lat="34.376101" lon="132.533581">
 <ele>82.4</ele>
 <time>2020-03-24T14:41:05Z</time>
</trkpt>
<trkpt lat="34.375972" lon="132.533602">
 <ele>79.5</ele>
 <time>2020-03-24T14:41:05Z</time>
</trkpt>
<trkpt lat="34.375827" lon="132.533613">
 <ele>78.4</ele>
 <time>2020-03-24T14:41:05Z</time>
</trkpt>
<trkpt lat="34.375698" lon="132.533710">
 <ele>76.1</ele>
 <time>2020-03-24T14:41:05Z</time>
</trkpt>
<trkpt lat="34.375595" lon="132.533720">
 <ele>72.8</ele>
 <time>2020-03-24T14:41:05Z</time>
</trkpt>
<trkpt lat="34.375483" lon="132.533677">
 <ele>68.1</ele>
 <time>2020-03-24T14:41:05Z</time>
</trkpt>
<trkpt lat="34.375406" lon="132.533592">
 <ele>63.4</ele>
 <time>2020-03-24T14:41:05Z</time>
</trkpt>
<trkpt lat="34.375312" lon="132.533463">
 <ele>58.3</ele>
 <time>2020-03-24T14:41:06Z</time>
</trkpt>
<trkpt lat="34.375217" lon="132.533356">
 <ele>55.8</ele>
 <time>2020-03-24T14:41:06Z</time>
</trkpt>
<trkpt lat="34.375046" lon="132.533356">
 <ele>47.4</ele>
 <time>2020-03-24T14:41:06Z</time>
</trkpt>
<trkpt lat="34.374951" lon="132.533388">
 <ele>41.4</ele>
 <time>2020-03-24T14:41:06Z</time>
</trkpt>
<trkpt lat="34.374882" lon="132.533323">
 <ele>37</ele>
 <time>2020-03-24T14:41:06Z</time>
</trkpt>
<trkpt lat="34.374754" lon="132.533323">
 <ele>33.4</ele>
 <time>2020-03-24T14:41:06Z</time>
</trkpt>
<trkpt lat="34.374694" lon="132.533388">
 <ele>31.5</ele>
 <time>2020-03-24T14:41:06Z</time>
</trkpt>
<trkpt lat="34.374599" lon="132.533323">
 <ele>26.8</ele>
 <time>2020-03-24T14:41:06Z</time>
</trkpt>
<trkpt lat="34.374582" lon="132.533259">
 <ele>24</ele>
 <time>2020-03-24T14:41:06Z</time>
</trkpt>
<trkpt lat="34.374573" lon="132.533173">
 <ele>21.1</ele>
 <time>2020-03-24T14:41:06Z</time>
</trkpt>
<trkpt lat="34.374479" lon="132.533173">
 <ele>16.9</ele>
 <time>2020-03-24T14:41:07Z</time>
</trkpt>
<trkpt lat="34.374445" lon="132.533077">
 <ele>12.5</ele>
 <time>2020-03-24T14:41:07Z</time>
</trkpt>
<trkpt lat="34.374367" lon="132.532884">
 <ele>4.9</ele>
 <time>2020-03-24T14:41:07Z</time>
</trkpt>
<trkpt lat="34.374230" lon="132.532798">
 <ele>3.8</ele>
 <time>2020-03-24T14:41:07Z</time>
</trkpt>
<trkpt lat="34.374299" lon="132.532594">
 <ele>3.7</ele>
 <time>2020-03-24T14:41:07Z</time>
</trkpt>
<trkpt lat="34.374428" lon="132.532208">
 <ele>3.5</ele>
 <time>2020-03-24T14:41:07Z</time>
</trkpt>
<trkpt lat="34.374410" lon="132.531618">
 <ele>3.6</ele>
 <time>2020-03-24T14:41:07Z</time>
</trkpt>
<trkpt lat="34.373423" lon="132.531618">
 <ele>2.4</ele>
 <time>2020-03-24T14:41:07Z</time>
</trkpt>
<trkpt lat="34.373277" lon="132.531564">
 <ele>2.4</ele>
 <time>2020-03-24T14:41:07Z</time>
</trkpt>
<trkpt lat="34.372823" lon="132.531349">
 <ele>2.2</ele>
 <time>2020-03-24T14:41:07Z</time>
</trkpt>
<trkpt lat="34.372514" lon="132.531221">
 <ele>2</ele>
 <time>2020-03-24T14:41:08Z</time>
</trkpt>
<trkpt lat="34.372299" lon="132.531081">
 <ele>2.3</ele>
 <time>2020-03-24T14:41:08Z</time>
</trkpt>
<trkpt lat="34.372299" lon="132.531017">
 <ele>2.6</ele>
 <time>2020-03-24T14:41:08Z</time>
</trkpt>
<trkpt lat="34.372333" lon="132.530877">
 <ele>2.8</ele>
 <time>2020-03-24T14:41:08Z</time>
</trkpt>
<trkpt lat="34.372368" lon="132.530738">
 <ele>3.2</ele>
 <time>2020-03-24T14:41:08Z</time>
</trkpt>
<trkpt lat="34.372368" lon="132.530609">
 <ele>3.8</ele>
 <time>2020-03-24T14:41:08Z</time>
</trkpt>
<trkpt lat="34.372265" lon="132.530491">
 <ele>4.5</ele>
 <time>2020-03-24T14:41:08Z</time>
</trkpt>
</trkseg>
</trk>
</gpx>

